"Pseudo-MPEC" for P10O9Kr

Created 2019 Jun 15 19:07:50 UT using Find_Orb

Click here for an explanation of pseudo-MPECs

 
 Astrometry: 
     P10O9Kr  C2019 05 02K+0I[OAH`/N1;*.B.IFGb_)lBx2SKU]P:GyOvAQ6*%HE/0gqYhuMF51
     P10O9Kr  C2019 05 02HgJT#Kc:!#aUR^v]NbPLK`mBs[`ncb63j6A-PC07RONyX.;.4fo(F51
     P10O9Kr  C2019 05 02bhc]L?s9[=)#JY4KR*TZ)2hxA#6_X(o)!BB]9L`c_:Q0l[eLQnrqF51
     P10O9Kr  C2019 05 27Zb0:u3Cjx3^[L0ujp5AZ[WyauQVlI'f8AaK+gKxE6M5`c0@DAt`qF51
     P10O9Kr  C2019 05 27KcNCi:5dU`(a'EY-w$wJm]gXWfyQLph3+eWEUAUo$wIu^T[JG8%OF51
     P10O9Kr  C2019 05 27$Y'*)]r=h7thlows99vhwvvXGDP9#%q6`!@xM]@1.eZ+'Tx@PAq'F51
     P10O9Kr  C2019 05 27=)N;3As8l/SGO+tfKlQ4W2s^frXpm)wd2%ES8lbE9lPg2UZdikvcF51
     P10O9Kr  C2019 05 29*52\FdF2i2DY$6vI*BSKTb_rRQHo[d^wQ@wo@08GB\ZM0#WRV(arF51
     P10O9Kr  C2019 05 29h3Js\sTFW+Qw)F9_?5Ay5nd8%HbW@*kE#'1MPYME%E8'`rp.\bhRF51
     P10O9Kr  C2019 05 29dP0+ZU*]\HcRdBZdYV@x8Zp.iRqW*[an@A#$X9'#3Dymb!M?v%WVF51
     P10O9Kr  C2019 05 29u?y'60eLq4Fl7%$Q,^.s)agEcnd9suoH;o)+%HWQ\XCN]YC`gC(]F51
     P10O9Kr  C2019 06 01ikQSAstrometry*$OTDIcO(2aYredacted;H?WvVYUy?vo=%-,J8F52
     P10O9Kr  C2019 06 01_/qhcwff;HM#\uB9LRL'+EXb]an-.pqPYH=ycYHj6^@2Qld#soQIF52
     P10O9Kr |C2019 06 03eh13P1AF\LZ*C3nV[8lsX$JJh'x7*)`orK\6XHr*(#MK)Qcu%BSO807
     P10O9Kr |C2019 06 03FAWDXaNr0xl4J$-.-d5#5.Rm3t=AAN?SimSG$EI8JNy25cHlR@T+807
     P10O9Kr |C2019 06 03hBYh9Tdgtq0AwciUblH2t!Ecem/qgdVU`6Dyj.@%P`W9O2!A4hp6807
     P10O9Kr  C2019 06 03gYU4iL!-]Wms!F=click/f\hpvE/K2dFF,\sPk-?/L!fsNAsE*9[F51
     P10O9Kr  C2019 06 03r/Wrr\^6]*CyAO2$H*3N_S!gNt3X3H*vZVn:+yyNStD\`H_k[3*hF51
     P10O9Kr  C2019 06 03irc_tQaYMA5B8P'k)UD#S[c@.7-mveB`$qke*a?:yIAjRPherei/F51
     P10O9Kr  C2019 06 03*JM,D5CQ(#NGhKKYkUwRtlQx3u*ddnHhAT20Qd9/l`/ZfZ915jccF51
     P10O9Kr KC2019 06 05\naJiFh.:6P[D=EO[^^Mforyma?MTPD9Z[aA_*AMl[cCpa:6uTuH291
     P10O9Kr KC2019 06 05SBcLJ=explanationf;oFv0B[;cb-EK*o2D1#?fxAst*FDGecLe9291
     P10O9Kr KC2019 06 05\-OwK7_J=C?)h+,aq^]DYgj#iGh,sTy/;Na@@Fj]idf1osM@W0dj291

Station data:
(291) LPL/Spacewatch II  (N31.961669 W111.599905)  US/Arizona.  Observers J.
   V. Scotti, R. S. McMillan. 1.8-m f/2.7 reflector + CCD.
(807) Cerro Tololo Observatory, La Serena  (S30.169136 W70.805900)  Chile.
(F51) Pan-STARRS 1, Haleakala  (N20.707235 W156.255910)  US/Hawaii.
   Observers N. Primak, A. Schultz, S. Watters, J. Thiel, T. Goggia. Measurer
   PS1 Science Consortium. 1.8-m Ritchey-Chrétien + CCD.
(F52) Pan-STARRS 2, Haleakala  (N20.707384 W156.255910)  US/Hawaii. 1.8-m
   Ritchey-Chrétien + CCD.

Orbital elements:  P10O9Kr
   Perihelion 2020 Apr 12.370556 +/- 0.187 TT =  8:53:36 (JD 2458951.870556)
Epoch 2019 Jun  5.0 TT = JDT 2458639.5   Earth MOID: 0.5166   Ma: 0.0128
M 208.42892109 +/- 0.23             (J2000 ecliptic)          AutoNEOCP
n   0.48522844 +/- 0.00046          Peri.  335.41083 +/- 0.19
a   1.60388003 +/- 0.00101          Node    68.24632 +/- 0.0046
e   0.0666899 +/- 0.000181          Incl.   20.80584 +/- 0.045
P   2.03/741.90d           H 21.6   G  0.15   U  7.6  
q 1.49691743 +/- 0.000657    Q 1.71084263 +/- 0.00137
From 23 observations 2019 May 2-June 5; mean residual 0".31
Residuals in arcseconds: 
190502 F51  .12+  .27-    190529 F51  .07-  .29+    190603 F51  .63-  .11-    
190502 F51  .05-  .34-    190529 F51  .07-  .11-    190603 F51  .02+  .01-    
190502 F51  .07+  .37+    190529 F51  .27-  .14+    190603 F51  .05+  .07+    
190527 F51  .02-  .25+    190601 F52  .17-  .57+    190603 F51  .08-  .04+    
190527 F51  .00   .13+    190601 F52  .06-  .01-    190605 291  .84+  .02-    
190527 F51  .07-  .10+    190603 807  .00   .06-    190605 291  .22-  .02-    
190527 F51  .03+  .36+    190603 807  .49+  .76-    190605 291  .04-  .42+    
190529 F51  .04-  .13+    190603 807  .04+  1.1-    

Ephemerides (geocentric):
Date (UTC) HH   RA              Dec         delta   r     elong  mag " sig PA
---- -- -- --  -------------   -----------  ------ ------ -----  --- ---- ---
2019 06 15 19  15 36 06.225   -23 41 56.41  .72624 1.6949 152.9 22.9 3.93  74
2019 06 15 20  15 36 02.220   -23 42 34.68  .72641 1.6949 152.9 22.9 3.96  74
2019 06 15 21  15 35 58.220   -23 43 12.94  .72658 1.6949 152.8 22.9 3.98  74
2019 06 15 22  15 35 54.225   -23 43 51.17  .72675 1.6949 152.8 22.9 4.01  74
2019 06 15 23  15 35 50.235   -23 44 29.38  .72692 1.6949 152.7 22.9 4.03  74
2019 06 16 00  15 35 46.249   -23 45 07.58  .72709 1.6948 152.6 22.9 4.06  74
2019 06 16 01  15 35 42.268   -23 45 45.76  .72726 1.6948 152.6 22.9 4.08  74
2019 06 16 02  15 35 38.293   -23 46 23.91  .72743 1.6948 152.5 22.9 4.11  74
2019 06 16 03  15 35 34.322   -23 47 02.05  .72760 1.6948 152.5 23.0 4.13  74
2019 06 16 04  15 35 30.356   -23 47 40.16  .72778 1.6948 152.4 23.0 4.16  74
2019 06 16 05  15 35 26.395   -23 48 18.26  .72795 1.6947 152.4 23.0 4.19  74
2019 06 16 06  15 35 22.439   -23 48 56.34  .72812 1.6947 152.3 23.0 4.21  74
2019 06 16 07  15 35 18.489   -23 49 34.40  .72829 1.6947 152.3 23.0 4.24  74
2019 06 16 08  15 35 14.542   -23 50 12.43  .72847 1.6947 152.2 23.0 4.26  74
2019 06 16 09  15 35 10.601   -23 50 50.45  .72864 1.6947 152.2 23.0 4.29  74
2019 06 16 10  15 35 06.665   -23 51 28.45  .72881 1.6946 152.1 23.0 4.31  74
2019 06 16 11  15 35 02.734   -23 52 06.43  .72899 1.6946 152.1 23.0 4.34  74
2019 06 16 12  15 34 58.808   -23 52 44.39  .72916 1.6946 152.0 23.0 4.37  74
2019 06 16 13  15 34 54.887   -23 53 22.33  .72934 1.6946 152.0 23.0 4.39  74
2019 06 16 14  15 34 50.971   -23 54 00.25  .72951 1.6946 151.9 23.0 4.42  74
2019 06 16 15  15 34 47.060   -23 54 38.15  .72969 1.6945 151.8 23.0 4.45  74
2019 06 16 16  15 34 43.153   -23 55 16.03  .72987 1.6945 151.8 23.0 4.47  75
2019 06 16 17  15 34 39.252   -23 55 53.89  .73004 1.6945 151.7 23.0 4.50  75
2019 06 16 18  15 34 35.356   -23 56 31.73  .73022 1.6945 151.7 23.0 4.52  75
2019 06 16 19  15 34 31.465   -23 57 09.55  .73040 1.6945 151.6 23.0 4.55  75
2019 06 16 20  15 34 27.579   -23 57 47.35  .73057 1.6945 151.6 23.0 4.58  75
2019 06 16 21  15 34 23.698   -23 58 25.13  .73075 1.6944 151.5 23.0 4.60  75
2019 06 16 22  15 34 19.822   -23 59 02.89  .73093 1.6944 151.5 23.0 4.63  75
2019 06 16 23  15 34 15.951   -23 59 40.64  .73111 1.6944 151.4 23.0 4.66  75
2019 06 17 00  15 34 12.085   -24 00 18.36  .73129 1.6944 151.4 23.0 4.68  75
2019 06 17 01  15 34 08.225   -24 00 56.06  .73147 1.6944 151.3 23.0 4.71  75
2019 06 17 02  15 34 04.369   -24 01 33.74  .73164 1.6943 151.3 23.0 4.74  75
2019 06 17 03  15 34 00.518   -24 02 11.41  .73182 1.6943 151.2 23.0 4.77  75
2019 06 17 04  15 33 56.673   -24 02 49.05  .73200 1.6943 151.2 23.0 4.79  75
2019 06 17 05  15 33 52.833   -24 03 26.67  .73219 1.6943 151.1 23.0 4.82  75
2019 06 17 06  15 33 48.997   -24 04 04.28  .73237 1.6943 151.1 23.0 4.85  75
2019 06 17 07  15 33 45.167   -24 04 41.86  .73255 1.6942 151.0 23.0 4.88  75
2019 06 17 08  15 33 41.342   -24 05 19.43  .73273 1.6942 150.9 23.0 4.90  75
2019 06 17 09  15 33 37.522   -24 05 56.97  .73291 1.6942 150.9 23.0 4.93  75
2019 06 17 10  15 33 33.707   -24 06 34.49  .73309 1.6942 150.8 23.0 4.96  75
2019 06 17 11  15 33 29.898   -24 07 12.00  .73327 1.6942 150.8 23.0 4.99  75
2019 06 17 12  15 33 26.093   -24 07 49.48  .73346 1.6941 150.7 23.0 5.01  75
2019 06 17 13  15 33 22.294   -24 08 26.95  .73364 1.6941 150.7 23.0 5.04  75
2019 06 17 14  15 33 18.500   -24 09 04.39  .73382 1.6941 150.6 23.0 5.07  75
2019 06 17 15  15 33 14.711   -24 09 41.82  .73401 1.6941 150.6 23.0 5.10  75
2019 06 17 16  15 33 10.927   -24 10 19.23  .73419 1.6941 150.5 23.0 5.13  75
2019 06 17 17  15 33 07.148   -24 10 56.61  .73438 1.6941 150.5 23.0 5.15  75
2019 06 17 18  15 33 03.375   -24 11 33.98  .73456 1.6940 150.4 23.0 5.18  75